Tiempo atmosférico en la estación meteorológica de VilagarcÍa de Arousa, Pontevedra (32 m.)



Fecha
DESCASC
Temp. máxima en grados centígrados (hora)
DESCASC
Temp. mínima en grados centígrados (hora)
DESCASC
Temp. media en grados centígrados
DESCASC
Racha de viento máxima en m/sg (hora)
DESCASC
Velocidad máxima media en intervalos de 10 minutos(hora)
DESCASC
Precipitaciones diarias en mm
DESCASC
Precipitaciones de 00:00 a 06:00 en mm
DESCASC
Precipitaciones de 06:00 a 12:00 en mm
DESCASC
Precipitaciones de 12:00 a 18:00 en mm
DESCASC
Precipitaciones de 18:00 a 24:00 en mm
DESCASC
14-12-2019 14.5 (15:10) 12.6 (09:50) 13.6 14.72 (21:50) 7.78 (20:50) 2.4 0.6 1 0.2 0.6
13-12-2019 14.2 (16:10) 12.7 (19:30) 13.4 13.61 (01:30) 8.61 (09:50) 5 2.6 2 0 0.4
12-12-2019 14 (19:50) 10.9 (05:20) 12.4 15.28 (16:30) 9.44 (16:20) 38.6 4.4 12 16.4 5.8
11-12-2019 12.8 (00:10) 6.5 (00:00) 9.7 12.5 (00:40) 6.67 (00:20) 8.4 7.4 0 0.8 0.2
10-12-2019 12.7 (23:50) 4.9 (08:30) 8.8 11.39 (23:50) 6.11 (23:59) 4.2 0 0 0.2 4
09-12-2019 13.8 (16:20) 6.7 (01:00) 10.3 4.17 (15:50) 2.5 (16:30) 0 0 0 0 0
08-12-2019 14 (08:50) 7.1 (00:00) 10.5 8.61 (02:00) 4.44 (02:10) 4.2 0.6 3.4 0.2 0
07-12-2019 13.1 (23:30) 7.1 (00:00) 10.1 7.22 (23:59) 3.33 (23:50) 10.4 0 0.6 2.6 7.2
06-12-2019 14 (15:10) 7.5 (00:00) 10.8 5 (07:10) 3.06 (07:10) 0 0 0 0 0
05-12-2019 15.6 (16:00) 7.9 (00:00) 11.8 14.17 (03:30) 8.33 (03:40) 0 0 0 0 0
04-12-2019 12.4 (15:50) 1.4 (07:30) 6.9 9.44 (21:10) 4.72 (19:40) 0 0 0 0 0
03-12-2019 13.1 (16:10) 4.6 (00:00) 8.9 6.11 (01:20) 3.33 (00:10) 0 0 0 0 0
02-12-2019 13.7 (15:30) 8.4 (00:00) 11 13.06 (18:20) 7.5 (20:30) 0 0 0 0 0
01-12-2019 14.3 (15:50) 9.9 (00:00) 12.1 13.06 (00:10) 7.78 (00:10) 9.8 9.8 0 0 0
30-11-2019 15.8 (00:00) 10.6 (00:00) 13.2 14.44 (00:30) 7.22 (00:30) 32.4 10.4 2.4 1.8 17.8
29-11-2019 15.9 (23:30) 11.3 (00:00) 13.6 14.17 (23:00) 6.94 (23:59) 1.6 0 0 0 1.6
28-11-2019 15.6 (17:30) 12.1 (23:40) 13.9 15.83 (14:50) 8.61 (17:50) 21.6 4.4 0.6 16.6 0
27-11-2019 14.6 (15:40) 12.2 (00:00) 13.4 14.17 (16:30) 6.67 (16:40) 12.4 4 1.2 3.6 3.6
26-11-2019 16.4 (01:10) 12.9 (00:00) 14.6 18.89 (16:00) 9.44 (16:00) 11.2 3 0.2 4.8 3.2
25-11-2019 15.8 (14:50) 12.8 (08:30) 14.3 14.17 (22:40) 7.5 (22:40) 2 1 0.2 0 0.8
24-11-2019 15.8 (21:30) 7.8 (00:00) 11.8 16.67 (16:50) 8.33 (16:40) 10.4 0 0.2 7.6 2.6
23-11-2019 14.6 (15:30) 8.3 (00:00) 11.5 14.17 (02:10) 6.39 (00:40) 1.4 1.4 0 0 0
22-11-2019 14.9 (09:10) 10.4 (00:00) 12.6 19.17 (05:30) 11.11 (20:40) 42 13.2 15.2 8 5.6
21-11-2019 14.4 (14:30) 7.1 (00:00) 10.7 9.44 (23:20) 5.28 (14:50) 2.2 1.6 0.6 0 0
20-11-2019 11.1 (17:10) 7.2 (05:40) 9.2 9.72 (22:00) 5.28 (22:50) 26 0.2 5.4 9.6 10.8
19-11-2019 10.7 (19:30) 6.6 (00:00) 8.6 5 (18:40) 2.5 (18:40) 10.6 0 3 6.4 1.2
18-11-2019 14.1 (16:20) 6.8 (00:00) 10.5 5 (15:10) 3.33 (15:10) 0.2 0 0.2 0 0
17-11-2019 13.9 (16:10) 8.9 (00:00) 11.4 7.5 (06:10) 4.72 (06:10) 4.8 2.4 2.2 0 0.2
16-11-2019 11.8 (15:40) 4.3 (00:00) 8.1 6.67 (15:20) 3.61 (15:30) 0.6 0 0.2 0 0.4
15-11-2019 11.3 (13:20) 6.5 (00:00) 8.9 12.78 (13:30) 7.22 (13:40) 3.4 0 1 1.4 1

Gráficas

Temp. máximas Temp. mínimas Temp. medias Precipitaciones Rachas de viento máximas Velocidades máximas media en intervalos de 10 minutos

Datos horarios

Fecha y hora oficial Temperatura (ºC) Velocidad del viento (km/h) Dirección del viento Racha (km/h) Dirección de racha Precipitación (mm) Presión (hPa) Tendencia (hPa) Humedad (%)
2019-12-14 23:00:00 14.5 24 Sudoeste 52 Sudoeste 0 -- -- 95
2019-12-14 22:00:00 14.3 24 Sudoeste 53 Sudoeste 0.2 -- -- 97
2019-12-14 21:00:00 14 27 Sudoeste 53 Sudoeste 0 -- -- 98
2019-12-14 20:00:00 14.1 27 Sudoeste 51 Sudoeste 0.2 -- -- 97
2019-12-14 19:00:00 13.9 24 Sudoeste 49 Sudoeste 0.2 -- -- 98
2019-12-14 18:00:00 14.1 25 Sudoeste 48 Sudoeste 0 -- -- 96
2019-12-14 17:00:00 14 23 Sudoeste 50 Sudoeste 0 -- -- 97
2019-12-14 16:00:00 14.2 24 Sudoeste 49 Sur 0 -- -- 96
2019-12-14 15:00:00 14.4 22 Sudoeste 42 Sudoeste 0.2 -- -- 95
2019-12-14 14:00:00 14.2 22 Sudoeste 46 Sudoeste 0 -- -- 94
2019-12-14 13:00:00 14.2 19 Sudoeste 42 Sudoeste 0 -- -- 94
2019-12-14 12:00:00 13.6 13 Sudoeste 33 Sudoeste 0 -- -- 92
2019-12-14 11:00:00 13 14 Sudoeste 30 Sudoeste 0 -- -- 99
2019-12-14 10:00:00 12.6 15 Sudoeste 38 Sudoeste 0.8 -- -- 100
2019-12-14 09:00:00 13.4 18 Sudoeste 33 Sudoeste 0 -- -- 98
2019-12-14 08:00:00 13.3 13 Sudoeste 28 Sudoeste 0 -- -- 97
2019-12-14 07:00:00 13.4 17 Sudoeste 37 Sudoeste 0.2 -- -- 98
2019-12-14 06:00:00 13.7 20 Sudoeste 37 Sudoeste 0.2 -- -- 97
2019-12-14 05:00:00 13.7 17 Sudoeste 35 Sudoeste 0.2 -- -- 97
2019-12-14 04:00:00 13.8 21 Sudoeste 40 Sudoeste 0 -- -- 96
2019-12-14 03:00:00 13.7 18 Sudoeste 35 Sudoeste 0 -- -- 97
2019-12-14 02:00:00 13.5 14 Sudoeste 33 Sudoeste 0.2 -- -- 98
2019-12-14 01:00:00 13.5 17 Sudoeste 39 Sudoeste 0 -- -- 97
2019-12-14 00:00:00 13.6 18 Sudoeste 33 Sudoeste 0 -- -- 95
2019-12-13 23:00:00 13.3 16 Sudoeste 35 Sudoeste 0 -- -- 97
2019-12-13 22:00:00 13.3 13 Sudoeste 28 Sudoeste 0 -- -- 95
2019-12-13 21:00:00 12.9 10 Sudoeste 28 Sudoeste 0 -- -- 99
2019-12-13 20:00:00 12.8 8 Sudoeste 21 Sudoeste 0 -- -- 100
2019-12-13 19:00:00 12.8 10 Sudoeste 27 Sudoeste 0.4 -- -- 98
2019-12-13 18:00:00 13.5 9 Sudoeste 32 Sudoeste 0 -- -- 92
2019-12-13 17:00:00 14.2 14 Sudoeste 30 Sudoeste 0 -- -- 98
2019-12-13 16:00:00 14.1 13 Sudoeste 32 Oeste 0 -- -- 99
2019-12-13 15:00:00 13.9 19 Oeste 36 Oeste 0 -- -- 98
2019-12-13 14:00:00 14 23 Oeste 40 Oeste 0 -- -- 99
2019-12-13 13:00:00 14.1 14 Oeste 31 Oeste 0 -- -- 100
2019-12-13 12:00:00 13.9 17 Oeste 34 Oeste 0.2 -- -- 100
2019-12-13 11:00:00 13.9 11 Sudoeste 45 Oeste 0.2 -- -- 100
2019-12-13 10:00:00 13.9 28 Oeste 45 Oeste 0.2 -- -- 100
2019-12-13 09:00:00 13.6 15 Oeste 31 Sudoeste 0.4 -- -- 100
2019-12-13 08:00:00 13.7 13 Oeste 27 Oeste 0.4 -- -- 100
2019-12-13 07:00:00 13.6 17 Oeste 35 Oeste 0.6 -- -- 100
2019-12-13 06:00:00 13.7 18 Oeste 36 Sudoeste 0.4 -- -- 100
2019-12-13 05:00:00 13.6 14 Oeste 45 Sudoeste 0.2 -- -- 100
2019-12-13 04:00:00 13.7 22 Sudoeste 45 Sudoeste 0.2 -- -- 100
2019-12-13 03:00:00 13.7 19 Sudoeste 35 Sudoeste 0.2 -- -- 100
2019-12-13 02:00:00 13.6 14 Oeste 49 Sudoeste 0.8 -- -- 100
2019-12-13 01:00:00 13.7 16 Oeste 39 Oeste 0.8 -- -- 100
2019-12-13 00:00:00 13.9 15 Oeste 36 Oeste 0.8 -- -- 100
2019-12-12 23:00:00 13.9 14 Oeste 35 Oeste 1.4 -- -- 100
2019-12-12 22:00:00 13.9 15 Oeste 37 Oeste 1 -- -- 100
2019-12-12 21:00:00 13.9 21 Oeste 36 Oeste 0.6 -- -- 100
2019-12-12 20:00:00 13.9 23 Oeste 49 Oeste 0.4 -- -- 100
2019-12-12 19:00:00 13.9 22 Oeste 45 Oeste 1.6 -- -- 100
2019-12-12 18:00:00 13.8 28 Oeste 50 Oeste 1.2 -- -- 100
2019-12-12 17:00:00 13.7 30 Oeste 55 Oeste 1.4 -- -- 100
2019-12-12 16:00:00 13.7 22 Oeste 48 Oeste 2.4 -- -- 100
2019-12-12 15:00:00 13.5 25 Oeste 47 Oeste 3.2 -- -- 100
2019-12-12 14:00:00 13.2 21 Oeste 46 Oeste 3.6 -- -- 100
2019-12-12 13:00:00 12.8 22 Oeste 46 Sudoeste 4.6 -- -- 100
2019-12-12 12:00:00 12.2 24 Sudoeste 49 Sudoeste 3.6 -- -- 100
2019-12-12 11:00:00 12.1 26 Sudoeste 45 Sudoeste 2.8 -- -- 100
2019-12-12 10:00:00 11.9 23 Sudoeste 48 Oeste 2 -- -- 98
2019-12-12 09:00:00 12.2 21 Oeste 39 Sudoeste 1.8 -- -- 96
2019-12-12 08:00:00 12.3 18 Oeste 36 Sudoeste 0.8 -- -- 95
2019-12-12 07:00:00 11.8 16 Oeste 33 Oeste 1 -- -- 93
2019-12-12 06:00:00 11.4 11 Oeste 51 Oeste 2.4 -- -- 97
2019-12-12 05:00:00 12.1 15 Oeste 37 Oeste 1.8 -- -- 93
2019-12-12 04:00:00 12.5 16 Oeste 32 Sudoeste 0 -- -- 86
2019-12-12 03:00:00 11.9 15 Oeste 31 Oeste 0 -- -- 89
2019-12-12 02:00:00 11.8 15 Oeste 37 Sudoeste 0.2 -- -- 95
2019-12-12 01:00:00 12.1 18 Oeste 36 Oeste 0 -- -- 93
2019-12-12 00:00:00 12 14 Oeste 30 Noroeste 0.2 -- -- 92
2019-12-11 23:00:00 12.1 12 Oeste 27 Oeste 0 -- -- 89
2019-12-11 22:00:00 12.2 13 Oeste 30 Oeste 0 -- -- 87
2019-12-11 21:00:00 11.1 2 Sudoeste 18 Oeste 0 -- -- 93
2019-12-11 20:00:00 12.3 11 Oeste 25 Oeste 0 -- -- 85
2019-12-11 19:00:00 11.3 5 Oeste 18 Oeste 0 -- -- 89
2019-12-11 18:00:00 11.9 9 Oeste 20 Noroeste 0.2 -- -- 91
2019-12-11 17:00:00 12.2 4 Sur 19 Noroeste 0 -- -- 90
2019-12-11 16:00:00 11.3 11 Oeste 37 Oeste 0.4 -- -- 88
2019-12-11 15:00:00 12.2 15 Oeste 34 Oeste 0 -- -- 84
2019-12-11 14:00:00 12.2 22 Oeste 35 Oeste 0.2 -- -- 81
2019-12-11 13:00:00 11.9 9 Sudoeste 18 Sudoeste 0 -- -- 82
2019-12-11 12:00:00 10.8 6 Sudoeste 16 Oeste 0 -- -- 84
2019-12-11 11:00:00 8.8 0 Calma 6 Sur 0 -- -- 100
2019-12-11 10:00:00 6.8 4 Sudeste 8 Sur 0 -- -- 100
2019-12-11 09:00:00 6.8 5 Sur 9 Sur 0 -- -- 97
2019-12-11 08:00:00 8.2 0 Calma 5 Este 0 -- -- 94
2019-12-11 07:00:00 8.8 0 Calma 7 Noroeste 0 -- -- 95
2019-12-11 06:00:00 9.4 5 Noroeste 14 Noroeste 0 -- -- 93
2019-12-11 05:00:00 9.9 10 Noroeste 18 Noroeste 0 -- -- 97
2019-12-11 04:00:00 10.1 3 Sudeste 16 Noroeste 1 -- -- 98
2019-12-11 03:00:00 10.5 7 Norte 28 Norte 1.6 -- -- 98
2019-12-11 02:00:00 11.8 11 Noroeste 38 Oeste 1.4 -- -- 100
2019-12-11 01:00:00 12.8 16 Sudoeste 45 Sudoeste 3.4 -- -- 100
2019-12-11 00:00:00 12.7 22 Sur 41 Sudoeste 2.2 -- -- 99
2019-12-10 23:00:00 12.4 15 Sur 36 Sur 0.8 -- -- 99
2019-12-10 22:00:00 12.2 20 Sur 38 Sur 0.2 -- -- 98
2019-12-10 21:00:00 11.9 15 Sur 37 Sur 0.4 -- -- 97
2019-12-10 20:00:00 12.1 19 Sur 32 Sur 0 -- -- 95
2019-12-10 19:00:00 11.7 11 Sur 26 Sur 0.4 -- -- 95
2019-12-10 18:00:00 12.1 12 Sur 23 Sur 0.2 -- -- 90
2019-12-10 17:00:00 12.1 9 Sudoeste 22 Sur 0 -- -- 89
2019-12-10 16:00:00 12.2 11 Sur 27 Sudoeste 0 -- -- 80
2019-12-10 15:00:00 12 12 Sudoeste 23 Sudoeste 0 -- -- 81
2019-12-10 14:00:00 10.8 3 Noroeste 6 Noroeste 0 -- -- 88
2019-12-10 13:00:00 9.8 4 Oeste 8 Noroeste 0 -- -- 91
2019-12-10 12:00:00 9 4 Noroeste 8 Noroeste 0 -- -- 96
2019-12-10 11:00:00 7.1 3 Sudeste 5 Sudeste 0 -- -- 100
2019-12-10 10:00:00 5.7 0 Calma 6 Noroeste 0 -- -- 100
2019-12-10 09:00:00 5.3 0 Calma 8 Sudeste 0 -- -- 100
2019-12-10 08:00:00 5.4 0 Calma 5 Este 0 -- -- 100
2019-12-10 07:00:00 5.8 3 Sur 11 Este 0 -- -- 99
2019-12-10 06:00:00 6.6 6 Este 18 Sudeste 0 -- -- 98
2019-12-10 05:00:00 5.9 4 Sudeste 8 Sur 0 -- -- 100
2019-12-10 04:00:00 5.9 3 Este 4 Sudeste 0 -- -- 100
2019-12-10 03:00:00 6.6 2 Noroeste 15 Sudeste 0 -- -- 98
2019-12-10 02:00:00 7.2 9 Este 18 Sudeste 0 -- -- 100
2019-12-10 01:00:00 6.4 5 Sudeste 6 Sudeste 0 -- -- 100
2019-12-10 00:00:00 7 3 Este 9 Sudeste 0 -- -- 100
2019-12-09 23:00:00 6.8 4 Este 5 Este 0 -- -- 100
2019-12-09 22:00:00 7.5 4 Este 9 Este 0 -- -- 100
2019-12-09 21:00:00 8.1 8 Este 12 Este 0 -- -- 99
2019-12-09 20:00:00 8.5 4 Este 6 Sur 0 -- -- 98
2019-12-09 19:00:00 9.7 4 Sur 8 Oeste 0 -- -- 93
2019-12-09 18:00:00 11.6 6 Oeste 9 Oeste 0 -- -- 89
2019-12-09 17:00:00 12.8 3 Este 15 Este 0 -- -- 79
2019-12-09 16:00:00 13.7 8 Este 15 Nordeste 0 -- -- 75
2019-12-09 15:00:00 13.1 3 Norte 6 Norte 0 -- -- 89
2019-12-09 14:00:00 12.3 3 Norte 9 Este 0 -- -- 90
2019-12-09 13:00:00 12.1 5 Este 9 Este 0 -- -- 90
2019-12-09 12:00:00 10.7 4 Noroeste 9 Sudeste 0 -- -- 97
2019-12-09 11:00:00 9.8 5 Sudeste 7 Sur 0 -- -- 100
2019-12-09 10:00:00 8.8 4 Noroeste 11 Noroeste 0 -- -- 100
2019-12-09 09:00:00 8.5 3 Sudeste 10 Sudeste 0 -- -- 99
2019-12-09 08:00:00 8.4 4 Sudeste 8 Sudeste 0 -- -- 100
2019-12-09 07:00:00 8.4 4 Oeste 9 Oeste 0 -- -- 100
2019-12-09 06:00:00 8.2 5 Sudeste 9 Este 0 -- -- 100
2019-12-09 05:00:00 8 4 Este 14 Este 0 -- -- 100
2019-12-09 04:00:00 7.6 6 Sudeste 9 Sudeste 0 -- -- 100
2019-12-09 03:00:00 7 5 Sur 8 Sur 0 -- -- 100
2019-12-09 02:00:00 6.9 4 Este 8 Sur 0 -- -- 100
2019-12-09 01:00:00 6.7 3 Sudeste 5 Sudeste 0 -- -- 100
2019-12-09 00:00:00 7.1 4 Este 8 Sur 0 -- -- 100
2019-12-08 23:00:00 7.5 3 Sudeste 8 Sur 0 -- -- 99
2019-12-08 22:00:00 8.2 4 Sur 8 Sur 0 -- -- 99
2019-12-08 21:00:00 9.2 3 Sudoeste 6 Norte 0 -- -- 96
2019-12-08 20:00:00 10.7 4 Norte 9 Noroeste 0 -- -- 95
2019-12-08 19:00:00 11.7 3 Este 15 Nordeste 0 -- -- 90
2019-12-08 18:00:00 12.8 3 Nordeste 14 Nordeste 0 -- -- 94
2019-12-08 17:00:00 13.1 5 Nordeste 14 Este 0 -- -- 97
2019-12-08 16:00:00 13.5 3 Norte 14 Noroeste 0 -- -- 100
2019-12-08 15:00:00 14 4 Noroeste 7 Noroeste 0 -- -- 100
2019-12-08 14:00:00 13.8 3 Sur 13 Sudoeste 0.2 -- -- 100
2019-12-08 13:00:00 13.6 6 Sudoeste 18 Sudoeste 0 -- -- 100
2019-12-08 12:00:00 13.5 8 Sudoeste 26 Sudoeste 0.2 -- -- 100
2019-12-08 11:00:00 13.5 12 Sudoeste 22 Sudoeste 0.4 -- -- 100
2019-12-08 10:00:00 13.3 3 Noroeste 9 Norte 0.6 -- -- 100
2019-12-08 09:00:00 13.9 8 Sudoeste 20 Sudoeste 1.2 -- -- 100
2019-12-08 08:00:00 13.8 6 Sur 17 Sudoeste 0.6 -- -- 100
2019-12-08 07:00:00 13.6 10 Sur 24 Sudoeste 0.4 -- -- 100
2019-12-08 06:00:00 13.5 10 Sur 27 Sudoeste 0.2 -- -- 100
2019-12-08 05:00:00 13.3 12 Sudoeste 26 Sudoeste 0 -- -- 100
2019-12-08 04:00:00 13.4 12 Sur 30 Sudoeste 0 -- -- 100
2019-12-08 03:00:00 13.3 13 Sudoeste 31 Sur 0 -- -- 100
2019-12-08 02:00:00 13.3 15 Sudoeste 31 Sur 0.2 -- -- 100
2019-12-08 01:00:00 13.2 11 Sudoeste 28 Sudoeste 0.2 -- -- 100
2019-12-08 00:00:00 13.1 12 Sur 26 Sudoeste 0.4 -- -- 100
2019-12-07 23:00:00 13 2 Sur 12 Sudoeste 0.4 -- -- 100
2019-12-07 22:00:00 12.6 2 Nordeste 8 Oeste 1.4 -- -- 100
2019-12-07 21:00:00 12.2 3 Nordeste 5 Nordeste 1.6 -- -- 100
2019-12-07 20:00:00 12 0 Calma 5 Nordeste 2 -- -- 100
2019-12-07 19:00:00 11.8 2 Norte 6 Nordeste 1.4 -- -- 100
2019-12-07 18:00:00 11.8 2 Norte 3 Nordeste 0.8 -- -- 100
2019-12-07 17:00:00 11.7 0 Calma 4 Noroeste 0.6 -- -- 100
2019-12-07 16:00:00 11.7 3 Noroeste 7 Noroeste 0.6 -- -- 100
2019-12-07 15:00:00 11.9 2 Noroeste 5 Noroeste 0.6 -- -- 100
2019-12-07 14:00:00 12.2 0 Calma 10 Sudeste 0 -- -- 99
2019-12-07 13:00:00 11.5 6 Este 12 Sudeste 0 -- -- 100
2019-12-07 12:00:00 10.2 7 Sudeste 14 Este 0 -- -- 100
2019-12-07 11:00:00 10 8 Sudeste 12 Este 0.4 -- -- 100
2019-12-07 10:00:00 9.5 3 Este 5 Este 0.2 -- -- 100
2019-12-07 09:00:00 9.2 2 Sudeste 4 Sur 0 -- -- 100
2019-12-07 08:00:00 9.1 0 Calma 4 Noroeste 0 -- -- 100
2019-12-07 07:00:00 8.9 2 Nordeste 6 Nordeste 0 -- -- 100
2019-12-07 06:00:00 8.9 0 Calma 17 Este 0 -- -- 100
2019-12-07 05:00:00 8.3 5 Sudeste 11 Este 0 -- -- 100
2019-12-07 04:00:00 8.1 4 Norte 12 Sudeste 0 -- -- 100
2019-12-07 03:00:00 7.4 6 Este 13 Sudeste 0 -- -- 100
2019-12-07 02:00:00 7.9 5 Sur 9 Sur 0 -- -- 100
2019-12-07 01:00:00 8 4 Oeste 17 Sudeste 0 -- -- 99
2019-12-07 00:00:00 8.6 6 Sudeste 11 Este 0 -- -- 99
2019-12-06 23:00:00 9 3 Nordeste 12 Este 0 -- -- 100
2019-12-06 22:00:00 8.7 4 Sudeste 8 Sudeste 0 -- -- 99
2019-12-06 21:00:00 9.2 0 Calma 8 Sudeste 0 -- -- 98
2019-12-06 20:00:00 9.6 0 Calma 4 Sur 0 -- -- 96
2019-12-06 19:00:00 10.2 2 Sudeste 8 Sur 0 -- -- 94
2019-12-06 18:00:00 12.2 0 Calma 6 Sur 0 -- -- 86
2019-12-06 17:00:00 13.4 4 Oeste 14 Oeste 0 -- -- 81
2019-12-06 16:00:00 12.8 10 Oeste 14 Noroeste 0 -- -- 84
2019-12-06 15:00:00 13.8 5 Oeste 8 Noroeste 0 -- -- 76
2019-12-06 14:00:00 12.1 0 Calma 8 Oeste 0 -- -- 82
2019-12-06 13:00:00 10.4 3 Noroeste 12 Noroeste 0 -- -- 87
2019-12-06 12:00:00 10.1 4 Nordeste 18 Sudeste 0 -- -- 90
2019-12-06 11:00:00 9 6 Este 15 Sudeste 0 -- -- 96
2019-12-06 10:00:00 7.8 2 Noroeste 4 Sudeste 0 -- -- 99
2019-12-06 09:00:00 7.6 0 Calma 5 Este 0 -- -- 96
2019-12-06 08:00:00 8.1 3 Este 18 Sudeste 0 -- -- 95
2019-12-06 07:00:00 8.1 8 Sudeste 16 Sudeste 0 -- -- 96
2019-12-06 06:00:00 8.1 5 Sudeste 9 Sudeste 0 -- -- 97
2019-12-06 05:00:00 8.6 5 Sudeste 15 Sudeste 0 -- -- 95
2019-12-06 04:00:00 8.4 6 Sudeste 15 Sudeste 0 -- -- 97
2019-12-06 03:00:00 7.9 2 Sur 7 Sur 0 -- -- 97
2019-12-06 02:00:00 8 3 Este 7 Sur 0 -- -- 96
2019-12-06 01:00:00 8.1 4 Sur 6 Sudeste 0 -- -- 97
2019-12-06 00:00:00 8.5 3 Sudeste 8 Sur 0 -- -- 93
2019-12-05 23:00:00 10.3 5 Nordeste 21 Norte 0 -- -- 88
2019-12-05 22:00:00 10.5 3 Nordeste 19 Norte 0 -- -- 88
2019-12-05 21:00:00 11.3 7 Norte 22 Norte 0 -- -- 86
2019-12-05 20:00:00 11.8 14 Norte 24 Norte 0 -- -- 85
2019-12-05 19:00:00 12.4 15 Nordeste 27 Nordeste 0 -- -- 83
2019-12-05 18:00:00 13.6 9 Nordeste 26 Norte 0 -- -- 78
2019-12-05 17:00:00 15 11 Nordeste 26 Este 0 -- -- 71
2019-12-05 16:00:00 15.6 10 Este 32 Nordeste 0 -- -- 69
2019-12-05 15:00:00 15.2 14 Este 34 Nordeste 0 -- -- 70
2019-12-05 14:00:00 14.5 15 Este 35 Nordeste 0 -- -- 72
2019-12-05 13:00:00 13.9 12 Este 34 Este 0 -- -- 73
2019-12-05 12:00:00 12.9 15 Nordeste 29 Este 0 -- -- 78
2019-12-05 11:00:00 11.4 16 Nordeste 34 Nordeste 0 -- -- 82
2019-12-05 10:00:00 10.8 13 Nordeste 31 Nordeste 0 -- -- 83
2019-12-05 09:00:00 10.4 15 Nordeste 30 Norte 0 -- -- 82
2019-12-05 08:00:00 9.9 11 Norte 36 Nordeste 0 -- -- 82
2019-12-05 07:00:00 10 17 Nordeste 40 Este 0 -- -- 80
2019-12-05 06:00:00 10.1 20 Este 37 Nordeste 0 -- -- 80
2019-12-05 05:00:00 10.8 15 Nordeste 39 Nordeste 0 -- -- 76
2019-12-05 04:00:00 10.5 18 Nordeste 51 Nordeste 0 -- -- 78
2019-12-05 03:00:00 9.6 15 Norte 39 Norte 0 -- -- 81
2019-12-05 02:00:00 9 21 Nordeste 42 Nordeste 0 -- -- 82
2019-12-05 01:00:00 8.3 19 Nordeste 32 Nordeste 0 -- -- 80
2019-12-05 00:00:00 8 17 Norte 29 Norte 0 -- -- 77
2019-12-04 23:00:00 8.4 10 Nordeste 29 Norte 0 -- -- 77
2019-12-04 22:00:00 8.9 13 Norte 34 Nordeste 0 -- -- 74
2019-12-04 21:00:00 9 14 Norte 27 Nordeste 0 -- -- 77
2019-12-04 20:00:00 9.5 14 Nordeste 31 Norte 0 -- -- 75
2019-12-04 19:00:00 10.3 10 Norte 26 Norte 0 -- -- 68
2019-12-04 18:00:00 10.9 10 Nordeste 21 Nordeste 0 -- -- 66
2019-12-04 17:00:00 12 7 Nordeste 22 Nordeste 0 -- -- 66
2019-12-04 16:00:00 12.3 8 Norte 13 Nordeste 0 -- -- 66
2019-12-04 15:00:00 11.9 4 Norte 8 Sudeste 0 -- -- 67
2019-12-04 14:00:00 9.7 0 Calma 7 Este 0 -- -- 71
2019-12-04 13:00:00 8.7 6 Este 11 Sudeste 0 -- -- 80
2019-12-04 12:00:00 6.3 2 Oeste 4 Noroeste 0 -- -- 84
2019-12-04 11:00:00 4.1 0 Calma 8 Este 0 -- -- 92
2019-12-04 10:00:00 2.6 5 Este 9 Sudeste 0 -- -- 96
2019-12-04 09:00:00 2.3 0 Calma 5 Nordeste 0 -- -- 97
2019-12-04 08:00:00 1.5 5 Sudeste 9 Sudeste 0 -- -- 99
2019-12-04 07:00:00 1.9 2 Este 10 Sudeste 0 -- -- 97
2019-12-04 06:00:00 2.4 4 Sudeste 9 Este 0 -- -- 98
2019-12-04 05:00:00 2.2 4 Este 5 Este 0 -- -- 97
2019-12-04 04:00:00 3 4 Norte 8 Noroeste 0 -- -- 97
2019-12-04 03:00:00 3.5 3 Este 10 Sudeste 0 -- -- 95
2019-12-04 02:00:00 3.2 5 Sudeste 9 Sudeste 0 -- -- 96
2019-12-04 01:00:00 4 2 Sudeste 8 Sudeste 0 -- -- 93
2019-12-04 00:00:00 4.7 7 Sudeste 12 Sudeste 0 -- -- 92
2019-12-03 23:00:00 5.1 5 Sudeste 10 Sudeste 0 -- -- 92
2019-12-03 22:00:00 4.9 4 Sudeste 7 Sudeste 0 -- -- 92
2019-12-03 21:00:00 6.1 0 Calma 7 Noroeste 0 -- -- 87
2019-12-03 20:00:00 6.6 2 Sudeste 6 Sudeste 0 -- -- 88
2019-12-03 19:00:00 7.8 0 Calma 8 Sur 0 -- -- 84
2019-12-03 18:00:00 10.1 2 Sur 15 Nordeste 0 -- -- 74
2019-12-03 17:00:00 13.1 4 Norte 12 Nordeste 0 -- -- 60
2019-12-03 16:00:00 12.9 5 Norte 12 Noroeste 0 -- -- 58
2019-12-03 15:00:00 12.4 8 Noroeste 13 Norte 0 -- -- 60
2019-12-03 14:00:00 11 5 Norte 10 Norte 0 -- -- 65
2019-12-03 13:00:00 9.9 4 Norte 8 Norte 0 -- -- 68
2019-12-03 12:00:00 8.5 5 Norte 9 Noroeste 0 -- -- 72
2019-12-03 11:00:00 7 2 Norte 5 Noroeste 0 -- -- 74
2019-12-03 10:00:00 5.9 2 Oeste 5 Nordeste 0 -- -- 77
2019-12-03 09:00:00 5.5 3 Norte 8 Norte 0 -- -- 78
2019-12-03 08:00:00 6.1 3 Nordeste 13 Nordeste 0 -- -- 76
2019-12-03 07:00:00 6.3 6 Norte 13 Nordeste 0 -- -- 75
2019-12-03 06:00:00 6.7 10 Nordeste 17 Norte 0 -- -- 74
2019-12-03 05:00:00 6.9 6 Nordeste 19 Norte 0 -- -- 73
2019-12-03 04:00:00 7.4 6 Norte 19 Norte 0 -- -- 72
2019-12-03 03:00:00 7.2 4 Norte 12 Nordeste 0 -- -- 76
2019-12-03 02:00:00 7.5 5 Nordeste 22 Este 0 -- -- 76
2019-12-03 01:00:00 8.3 5 Este 21 Este 0 -- -- 72
2019-12-03 00:00:00 8.4 13 Nordeste 28 Este 0 -- -- 74
2019-12-02 23:00:00 9.5 14 Nordeste 26 Nordeste 0 -- -- 70
2019-12-02 22:00:00 9.8 5 Nordeste 38 Este 0 -- -- 70
2019-12-02 21:00:00 10 26 Este 44 Este 0 -- -- 71
2019-12-02 20:00:00 10.2 19 Este 44 Este 0 -- -- 71
2019-12-02 19:00:00 10.7 13 Este 47 Nordeste 0 -- -- 68
2019-12-02 18:00:00 11.1 16 Nordeste 40 Nordeste 0 -- -- 68
2019-12-02 17:00:00 12.4 23 Nordeste 41 Este 0 -- -- 62
2019-12-02 16:00:00 13.6 13 Este 31 Este 0 -- -- 61
2019-12-02 15:00:00 13.2 17 Nordeste 41 Nordeste 0 -- -- 64
2019-12-02 14:00:00 12.8 21 Nordeste 41 Nordeste 0 -- -- 68
2019-12-02 13:00:00 12.1 15 Nordeste 31 Nordeste 0 -- -- 76
2019-12-02 12:00:00 11.7 14 Nordeste 31 Norte 0 -- -- 80
2019-12-02 11:00:00 11.1 14 Norte 28 Nordeste 0 -- -- 81
2019-12-02 10:00:00 11 14 Norte 31 Nordeste 0 -- -- 83
2019-12-02 09:00:00 10.5 14 Nordeste 40 Nordeste 0 -- -- 85
2019-12-02 08:00:00 10.3 15 Nordeste 43 Nordeste 0 -- -- 87
2019-12-02 07:00:00 10.1 11 Nordeste 27 Nordeste 0 -- -- 86
2019-12-02 06:00:00 9.9 11 Nordeste 34 Norte 0 -- -- 84
2019-12-02 05:00:00 9.9 18 Nordeste 39 Norte 0 -- -- 82
2019-12-02 04:00:00 9.8 18 Nordeste 31 Nordeste 0 -- -- 80
2019-12-02 03:00:00 9.4 11 Nordeste 25 Nordeste 0 -- -- 76
2019-12-02 02:00:00 9.3 9 Nordeste 35 Nordeste 0 -- -- 81
2019-12-02 01:00:00 9.8 14 Nordeste 33 Nordeste 0 -- -- 79
2019-12-02 00:00:00 10.1 13 Nordeste 26 Nordeste 0 -- -- 81
2019-12-01 23:00:00 10.1 6 Nordeste 23 Norte 0 -- -- 82
2019-12-01 22:00:00 10.5 10 Nordeste 33 Nordeste 0 -- -- 79
2019-12-01 21:00:00 10.7 15 Nordeste 36 Nordeste 0 -- -- 75
2019-12-01 20:00:00 11 13 Nordeste 40 Nordeste 0 -- -- 79
2019-12-01 19:00:00 11.4 19 Nordeste 41 Nordeste 0 -- -- 81
2019-12-01 18:00:00 11.9 19 Nordeste 41 Nordeste 0 -- -- 83
2019-12-01 17:00:00 13.5 16 Nordeste 37 Nordeste 0 -- -- 75
2019-12-01 16:00:00 14.2 19 Nordeste 38 Nordeste 0 -- -- 71
2019-12-01 15:00:00 13.9 19 Nordeste 41 Nordeste 0 -- -- 72
2019-12-01 14:00:00 13.5 17 Nordeste 40 Este 0 -- -- 76
2019-12-01 13:00:00 12.9 23 Nordeste 39 Nordeste 0 -- -- 80
2019-12-01 12:00:00 12.1 14 Nordeste 33 Nordeste 0 -- -- 85
2019-12-01 11:00:00 11.4 16 Nordeste 29 Nordeste 0 -- -- 89
2019-12-01 10:00:00 10.7 16 Nordeste 29 Nordeste 0 -- -- 93
2019-12-01 09:00:00 10 14 Nordeste 33 Nordeste 0 -- -- 94
2019-12-01 08:00:00 10.2 11 Norte 26 Norte 0 -- -- 96
2019-12-01 07:00:00 10.6 9 Nordeste 25 Este 0 -- -- 97
2019-12-01 06:00:00 10.7 17 Este 31 Este 1.6 -- -- 100
2019-12-01 05:00:00 11 12 Este 19 Sudeste 1.4 -- -- 100
2019-12-01 04:00:00 11.2 9 Sur 32 Sudoeste 0.2 -- -- 97
2019-12-01 03:00:00 11.5 10 Sur 28 Sudoeste 0.8 -- -- 99
2019-12-01 02:00:00 11.2 11 Sur 31 Sur 2.2 -- -- 98
2019-12-01 01:00:00 11 14 Sudoeste 47 Sudoeste 3.6 -- -- 97
2019-12-01 00:00:00 12 15 Sudoeste 29 Sudoeste 7.4 -- -- 97
2019-11-30 23:00:00 10.6 5 Sur 51 Sudoeste 9.2 -- -- 95
2019-11-30 22:00:00 12.3 15 Sur 32 Sur 0.6 -- -- 95
2019-11-30 21:00:00 12 12 Sur 27 Sudoeste 0 -- -- 91
2019-11-30 20:00:00 11.9 10 Sudoeste 27 Sudoeste 0.6 -- -- 91
2019-11-30 19:00:00 12.6 13 Sudoeste 31 Sudoeste 0 -- -- 90
2019-11-30 18:00:00 12.3 6 Sur 37 Sudoeste 1.8 -- -- 94
2019-11-30 17:00:00 14 14 Sudoeste 30 Sudoeste 0 -- -- 82
2019-11-30 16:00:00 14.7 15 Sudoeste 39 Sudoeste 0 -- -- 79
2019-11-30 15:00:00 15.2 18 Oeste 35 Oeste 0 -- -- 74
2019-11-30 14:00:00 14.7 18 Oeste 34 Sudoeste 0 -- -- 79
2019-11-30 13:00:00 15.1 15 Sudoeste 29 Sudoeste 0 -- -- 81
2019-11-30 12:00:00 14.6 13 Sudoeste 25 Oeste 0 -- -- 81
2019-11-30 11:00:00 13.6 9 Sudoeste 33 Sudoeste 0 -- -- 91
2019-11-30 10:00:00 12.3 10 Sudoeste 18 Sudoeste 0 -- -- 96
2019-11-30 09:00:00 11.7 8 Sudoeste 26 Sudoeste 0.4 -- -- 95
2019-11-30 08:00:00 12.7 21 Oeste 43 Oeste 2 -- -- 93
2019-11-30 07:00:00 14.2 10 Oeste 22 Oeste 0 -- -- 93
2019-11-30 06:00:00 14.3 11 Oeste 38 Sudoeste 0 -- -- 93
2019-11-30 05:00:00 15.5 21 Oeste 48 Sudoeste 1.2 -- -- 100
2019-11-30 04:00:00 15.6 20 Sudoeste 45 Sudoeste 0 -- -- 100
2019-11-30 03:00:00 15.6 21 Sudoeste 44 Sudoeste 6 -- -- 100
2019-11-30 02:00:00 15.5 26 Sudoeste 43 Sur 0.4 -- -- 100
2019-11-30 01:00:00 15.5 21 Sudoeste 52 Sudoeste 2.8 -- -- 100
2019-11-30 00:00:00 15.8 25 Sudoeste 46 Sudoeste 0.8 -- -- 100
2019-11-29 23:00:00 15.8 20 Sudoeste 51 Sudoeste 0.2 -- -- 100
2019-11-29 22:00:00 15.3 12 Sur 31 Sur 0.6 -- -- 100
2019-11-29 21:00:00 14.4 9 Sur 17 Sudoeste 0 -- -- 100
2019-11-29 20:00:00 13.8 3 Este 6 Sudeste 0 -- -- 99
2019-11-29 19:00:00 13.8 3 Sudeste 6 Sudeste 0 -- -- 97
2019-11-29 18:00:00 14.1 0 Calma 9 Oeste 0 -- -- 95
2019-11-29 17:00:00 14.6 4 Noroeste 6 Oeste 0 -- -- 92
2019-11-29 16:00:00 15.6 5 Noroeste 11 Oeste 0 -- -- 90
2019-11-29 15:00:00 15.3 5 Norte 8 Oeste 0 -- -- 95
2019-11-29 14:00:00 14.1 4 Norte 6 Norte 0 -- -- 99
2019-11-29 13:00:00 13.2 3 Noroeste 8 Este 0 -- -- 100
2019-11-29 12:00:00 12.3 6 Sudeste 14 Sudeste 0 -- -- 100
2019-11-29 11:00:00 12.1 4 Sudeste 11 Norte 0 -- -- 100
2019-11-29 10:00:00 11.5 6 Norte 13 Norte 0 -- -- 100
2019-11-29 09:00:00 11.9 3 Sudeste 9 Norte 0 -- -- 100
2019-11-29 08:00:00 11.9 5 Norte 7 Norte 0 -- -- 100
2019-11-29 07:00:00 12.1 3 Sur 9 Sudeste 0 -- -- 100
2019-11-29 06:00:00 12 3 Sudeste 6 Sudeste 0 -- -- 100
2019-11-29 05:00:00 12.1 4 Sur 8 Sur 0 -- -- 100
2019-11-29 04:00:00 11.7 0 Calma 6 Noroeste 0 -- -- 100
2019-11-29 03:00:00 11.5 4 Noroeste 6 Oeste 0 -- -- 100
2019-11-29 02:00:00 12 2 Sudoeste 6 Sur 0 -- -- 100
2019-11-29 01:00:00 11.7 0 Calma 3 Este 0 -- -- 100
2019-11-29 00:00:00 12.1 3 Sudeste 6 Sudeste 0 -- -- 100
2019-11-28 23:00:00 12.5 2 Nordeste 6 Sudeste 0 -- -- 100
2019-11-28 22:00:00 13 4 Sur 6 Sur 0 -- -- 99
2019-11-28 21:00:00 13.7 2 Sudeste 12 Sudoeste 0 -- -- 99
2019-11-28 20:00:00 14.4 9 Sudoeste 26 Sudoeste 0 -- -- 97
2019-11-28 19:00:00 15.2 17 Sudoeste 42 Sudoeste 0 -- -- 98
2019-11-28 18:00:00 15.5 28 Sudoeste 47 Sudoeste 0 -- -- 100
2019-11-28 17:00:00 15.4 23 Sudoeste 52 Sudoeste 1.8 -- -- 100
2019-11-28 16:00:00 15 27 Sudoeste 56 Sudoeste 4 -- -- 100
2019-11-28 15:00:00 14.6 23 Sudoeste 57 Sudoeste 5 -- -- 100
2019-11-28 14:00:00 14.1 25 Sur 46 Sudoeste 2.2 -- -- 99
2019-11-28 13:00:00 13.8 19 Sudoeste 36 Sudoeste 3.6 -- -- 99
2019-11-28 12:00:00 13.8 12 Sur 28 Sudoeste 0.6 -- -- 98
2019-11-28 11:00:00 13.6 12 Sudoeste 22 Sudoeste 0 -- -- 100
2019-11-28 10:00:00 13.3 9 Sudoeste 18 Sudoeste 0 -- -- 100
2019-11-28 09:00:00 13.1 9 Sudoeste 18 Sur 0 -- -- 99
2019-11-28 08:00:00 12.9 6 Sudoeste 15 Sur 0 -- -- 100
2019-11-28 07:00:00 12.8 5 Sudoeste 12 Sur 0 -- -- 100
2019-11-28 06:00:00 12.6 3 Sur 10 Sudoeste 0 -- -- 100
2019-11-28 05:00:00 12.6 3 Sur 13 Sudoeste 0 -- -- 100
2019-11-28 04:00:00 12.4 5 Sur 11 Sudoeste 0.2 -- -- 100
2019-11-28 03:00:00 12.3 4 Sudoeste 13 Sudoeste 0.4 -- -- 100
2019-11-28 02:00:00 13 9 Sudoeste 15 Oeste 1 -- -- 100
2019-11-28 01:00:00 13.2 6 Sudoeste 19 Sudoeste 2.8 -- -- 100
2019-11-28 00:00:00 13.6 10 Oeste 30 Sudoeste 1.8 -- -- 100
2019-11-27 23:00:00 14 15 Sudoeste 28 Sudoeste 0.2 -- -- 100
2019-11-27 22:00:00 13.8 14 Sudoeste 29 Sudoeste 0.4 -- -- 100
2019-11-27 21:00:00 13.5 14 Sudoeste 32 Sudoeste 0.2 -- -- 100
2019-11-27 20:00:00 13.4 15 Sudoeste 25 Sudoeste 1 -- -- 99
2019-11-27 19:00:00 13.3 11 Sudoeste 29 Sudoeste 0 -- -- 99
2019-11-27 18:00:00 13 11 Sudoeste 32 Sudoeste 0.2 -- -- 97
2019-11-27 17:00:00 13 15 Sudoeste 51 Oeste 1 -- -- 97
2019-11-27 16:00:00 14.4 20 Sudoeste 41 Sur 0 -- -- 92
2019-11-27 15:00:00 14 14 Sudoeste 30 Sudoeste 0 -- -- 94
2019-11-27 14:00:00 13.4 19 Sudoeste 37 Sudoeste 0.2 -- -- 94
2019-11-27 06:00:00 -- -- -- -- -- -- -- -- --
2019-11-27 05:00:00 -- -- -- -- -- -- -- -- --
2019-11-27 04:00:00 -- -- -- -- -- -- -- -- --
2019-11-27 03:00:00 13.1 16 Sudoeste 25 Sudoeste 0.2 -- -- 98
2019-11-27 02:00:00 12.3 14 Sudoeste 36 Oeste 3.4 -- -- 98
2019-11-27 01:00:00 13.7 12 Oeste 33 Sudoeste 0.2 -- -- 91
2019-11-27 00:00:00 13.3 23 Sudoeste 45 Sudoeste 0.4 -- -- 94
2019-11-26 23:00:00 12.9 20 Sudoeste 46 Sudoeste 2.8 -- -- 94
2019-11-26 22:00:00 14 18 Sudoeste 36 Oeste 0 -- -- 84
2019-11-26 21:00:00 13.8 20 Sudoeste 42 Sudoeste 0 -- -- 84
2019-11-26 20:00:00 14 17 Oeste 51 Oeste 0 -- -- 82
2019-11-26 19:00:00 14.2 20 Oeste 45 Sudoeste 0 -- -- 86
2019-11-26 18:00:00 13.6 23 Sudoeste 49 Oeste 0.2 -- -- 94
2019-11-26 17:00:00 14.4 30 Sudoeste 63 Sudoeste 4.6 -- -- 86
2019-11-26 16:00:00 15.6 34 Sudoeste 68 Sudoeste 0 -- -- 93
2019-11-26 15:00:00 15.6 26 Sudoeste 55 Sudoeste 0 -- -- 91
2019-11-26 14:00:00 15.7 28 Sudoeste 49 Sudoeste 0 -- -- 94
2019-11-26 13:00:00 15.9 23 Sudoeste 58 Sur 0 -- -- 94
2019-11-26 12:00:00 16.1 22 Sudoeste 48 Sur 0 -- -- 93
2019-11-26 11:00:00 15.8 19 Sudoeste 44 Sudoeste 0 -- -- 95
2019-11-26 10:00:00 15.8 19 Sur 49 Sudoeste 0.2 -- -- 97
2019-11-26 09:00:00 15.5 21 Sudoeste 39 Sudoeste 0 -- -- 98
2019-11-26 08:00:00 15.4 17 Sudoeste 38 Sudoeste 0 -- -- 99
2019-11-26 07:00:00 15.2 18 Sudoeste 39 Sudoeste 0 -- -- 100
2019-11-26 06:00:00 15.2 18 Sudoeste 35 Sudoeste 0 -- -- 100
2019-11-26 05:00:00 15 18 Sudoeste 35 Sudoeste 0 -- -- 100
2019-11-26 04:00:00 15 23 Sudoeste 46 Sudoeste 0 -- -- 100
2019-11-26 03:00:00 15.9 29 Sudoeste 54 Sudoeste 0.8 -- -- 100
2019-11-26 02:00:00 16.2 23 Sudoeste 63 Sur 1.2 -- -- 99
2019-11-26 01:00:00 16.3 24 Sur 53 Sur 1 -- -- 98
2019-11-26 00:00:00 15.3 21 Sur 44 Sur 0.2 -- -- 97
2019-11-25 23:00:00 14.9 23 Sur 51 Sur 0.2 -- -- 96
2019-11-25 22:00:00 14.8 22 Sur 41 Sur 0.4 -- -- 96
2019-11-25 21:00:00 15.2 12 Sur 26 Sur 0 -- -- 91
2019-11-25 20:00:00 15.5 12 Sur 29 Sur 0 -- -- 87
2019-11-25 19:00:00 15.2 14 Sur 34 Sur 0 -- -- 86
2019-11-25 18:00:00 15.1 11 Sur 30 Sudoeste 0 -- -- 89
2019-11-25 17:00:00 15.3 9 Sur 30 Sudoeste 0 -- -- 86
2019-11-25 16:00:00 15.6 15 Sur 30 Sudoeste 0 -- -- 83
2019-11-25 15:00:00 15.7 14 Sudoeste 28 Sur 0 -- -- 85
2019-11-25 14:00:00 15.4 13 Sudoeste 27 Sur 0 -- -- 87
2019-11-25 13:00:00 14.5 12 Sudoeste 24 Sudoeste 0 -- -- 92
2019-11-25 12:00:00 14.5 10 Sur 26 Sudoeste 0 -- -- 92
2019-11-25 11:00:00 14.2 10 Sur 20 Sur 0 -- -- 90
2019-11-25 10:00:00 13.6 8 Sudoeste 17 Sur 0 -- -- 92
2019-11-25 09:00:00 12.9 10 Sudoeste 20 Sur 0 -- -- 98
2019-11-25 08:00:00 13.1 6 Sudoeste 22 Sudoeste 0.2 -- -- 99
2019-11-25 07:00:00 13.3 8 Sudoeste 28 Sudoeste 0 -- -- 99
2019-11-25 06:00:00 14 13 Oeste 29 Sudoeste 0.8 -- -- 100
2019-11-25 05:00:00 13.9 13 Sudoeste 31 Sudoeste 0 -- -- 99
2019-11-25 04:00:00 13.9 14 Sudoeste 28 Sudoeste 0 -- -- 98
2019-11-25 03:00:00 13.9 14 Sudoeste 36 Sudoeste 0 -- -- 98
2019-11-25 02:00:00 15 19 Sudoeste 37 Oeste 0.2 -- -- 97
2019-11-25 01:00:00 14.8 15 Sudoeste 33 Sudoeste 0 -- -- 98
2019-11-25 00:00:00 14.5 19 Oeste 44 Oeste 2 -- -- 99
2019-11-24 23:00:00 15.5 18 Sudoeste 39 Oeste 0.2 -- -- 99
2019-11-24 22:00:00 15.8 21 Sudoeste 37 Sudoeste 0.2 -- -- 99
2019-11-24 21:00:00 15.5 18 Sudoeste 34 Oeste 0 -- -- 100
2019-11-24 20:00:00 14.9 15 Sudoeste 44 Sudoeste 0 -- -- 98
2019-11-24 19:00:00 14.4 21 Sudoeste 44 Sudoeste 0.2 -- -- 99
2019-11-24 18:00:00 14.4 27 Sudoeste 57 Sudoeste 0.4 -- -- 99
2019-11-24 17:00:00 14.7 27 Sudoeste 60 Sur 4.2 -- -- 98
2019-11-24 16:00:00 14.5 22 Sur 52 Sur 0.4 -- -- 96
2019-11-24 15:00:00 14 17 Sur 49 Sur 0.6 -- -- 96
2019-11-24 14:00:00 12.9 26 Sur 45 Sur 0.4 -- -- 97
2019-11-24 13:00:00 12.2 26 Sur 46 Sur 1.6 -- -- 97
2019-11-24 12:00:00 12.2 21 Sur 39 Sur 0.2 -- -- 96
2019-11-24 11:00:00 12.5 18 Sur 37 Sur 0 -- -- 92
2019-11-24 10:00:00 12.7 14 Sur 34 Sur 0 -- -- 86
2019-11-24 09:00:00 12.1 15 Sur 29 Sur 0 -- -- 87
2019-11-24 08:00:00 11.8 13 Sur 25 Sur 0 -- -- 86
2019-11-24 07:00:00 11.5 14 Sur 26 Sur 0 -- -- 89
2019-11-24 06:00:00 11.4 9 Sur 24 Sudoeste 0 -- -- 89
2019-11-24 05:00:00 10.3 12 Sur 19 Sur 0 -- -- 96
2019-11-24 04:00:00 9 0 Calma 6 Este 0 -- -- 98
2019-11-24 03:00:00 8.6 3 Este 10 Sudoeste 0 -- -- 98
2019-11-24 02:00:00 8 3 Sudeste 8 Sur 0 -- -- 99
2019-11-24 01:00:00 8.4 5 Sudeste 8 Sudeste 0 -- -- 98
2019-11-24 00:00:00 8.4 5 Este 10 Sudoeste 0 -- -- 97
2019-11-23 23:00:00 8.4 4 Este 8 Sudoeste 0 -- -- 98
2019-11-23 22:00:00 9.1 3 Sudeste 10 Sur 0 -- -- 94
2019-11-23 21:00:00 10.2 4 Este 17 Oeste 0 -- -- 88
2019-11-23 20:00:00 11.9 9 Oeste 14 Oeste 0 -- -- 82
2019-11-23 19:00:00 12 9 Oeste 17 Noroeste 0 -- -- 85
2019-11-23 18:00:00 12.6 7 Oeste 35 Noroeste 0 -- -- 83
2019-11-23 17:00:00 13.8 14 Noroeste 24 Noroeste 0 -- -- 75
2019-11-23 16:00:00 14.3 8 Noroeste 23 Noroeste 0 -- -- 77
2019-11-23 15:00:00 14 9 Oeste 27 Oeste 0 -- -- 82
2019-11-23 14:00:00 14.2 15 Noroeste 25 Oeste 0 -- -- 75
2019-11-23 13:00:00 13.9 10 Sudoeste 17 Sudoeste 0 -- -- 78
2019-11-23 12:00:00 13.3 7 Oeste 19 Oeste 0 -- -- 80
2019-11-23 11:00:00 12.7 10 Noroeste 22 Noroeste 0 -- -- 78
2019-11-23 10:00:00 11.5 4 Norte 23 Oeste 0 -- -- 82
2019-11-23 09:00:00 11.2 11 Noroeste 35 Noroeste 0 -- -- 80
2019-11-23 08:00:00 11 9 Noroeste 27 Noroeste 0 -- -- 81
2019-11-23 07:00:00 10.4 5 Este 24 Noroeste 0 -- -- 86
2019-11-23 06:00:00 10.6 9 Noroeste 22 Noroeste 0 -- -- 85
2019-11-23 05:00:00 10.1 10 Noroeste 22 Noroeste 0.4 -- -- 87
2019-11-23 04:00:00 10.7 8 Norte 44 Noroeste 0.2 -- -- 83
2019-11-23 03:00:00 10.7 17 Noroeste 51 Noroeste 0.2 -- -- 82
2019-11-23 02:00:00 11 22 Noroeste 46 Noroeste 0.2 -- -- 81
2019-11-23 01:00:00 10.6 15 Noroeste 39 Oeste 0.4 -- -- 88
2019-11-23 00:00:00 10.8 14 Noroeste 40 Noroeste 0.2 -- -- 85
2019-11-22 23:00:00 10.8 26 Noroeste 45 Noroeste 0.2 -- -- 85
2019-11-22 22:00:00 10.7 33 Noroeste 62 Oeste 3.4 -- -- 90
2019-11-22 21:00:00 11.7 29 Noroeste 68 Noroeste 1.2 -- -- 89
2019-11-22 20:00:00 12.2 34 Oeste 58 Oeste 0.2 -- -- 88
2019-11-22 19:00:00 12.1 28 Oeste 53 Noroeste 0.4 -- -- 94
2019-11-22 18:00:00 12.3 26 Oeste 61 Oeste 0.4 -- -- 95
2019-11-22 17:00:00 13.4 25 Oeste 53 Oeste 1.6 -- -- 88
2019-11-22 16:00:00 13.9 27 Oeste 55 Sudoeste 0.4 -- -- 90
2019-11-22 15:00:00 13.1 18 Oeste 41 Oeste 4 -- -- 87
2019-11-22 14:00:00 13.3 18 Oeste 46 Sudoeste 1.6 -- -- 91
2019-11-22 13:00:00 14 21 Sudoeste 37 Sudoeste 0 -- -- 87
2019-11-22 12:00:00 12.9 26 Oeste 46 Oeste 4.4 -- -- 95
2019-11-22 11:00:00 13.6 18 Oeste 62 Oeste 1.2 -- -- 94
2019-11-22 10:00:00 14.8 25 Sudoeste 56 Oeste 0.2 -- -- 97
2019-11-22 09:00:00 14.7 31 Sudoeste 66 Sudoeste 4.8 -- -- 100
2019-11-22 08:00:00 14.7 28 Sudoeste 56 Sudoeste 4 -- -- 100
2019-11-22 07:00:00 13.4 26 Sur 54 Sur 0.6 -- -- 98
2019-11-22 06:00:00 12.8 29 Sur 69 Sur 0.6 -- -- 97
2019-11-22 05:00:00 12.2 26 Sur 51 Sur 3.2 -- -- 96
2019-11-22 04:00:00 11.5 23 Sur 44 Sur 2.4 -- -- 95
2019-11-22 03:00:00 11.3 20 Sudeste 45 Sur 3 -- -- 95
2019-11-22 02:00:00 11.1 13 Sudeste 32 Sur 2.4 -- -- 95
2019-11-22 01:00:00 11.5 15 Sur 28 Sur 1.6 -- -- 92
2019-11-22 00:00:00 12.3 15 Sur 34 Sur 0 -- -- 86
2019-11-21 23:00:00 11.9 14 Sur 29 Sudeste 0 -- -- 89
2019-11-21 22:00:00 11.5 7 Sudeste 15 Sur 0 -- -- 88
2019-11-21 21:00:00 11.6 8 Sudeste 19 Sur 0 -- -- 87
2019-11-21 20:00:00 11.6 9 Sur 24 Sur 0 -- -- 87
2019-11-21 19:00:00 11.5 15 Sur 28 Sur 0 -- -- 87
2019-11-21 18:00:00 12.1 9 Sur 19 Sur 0 -- -- 84
2019-11-21 17:00:00 12.8 8 Sudoeste 31 Sur 0 -- -- 84
2019-11-21 16:00:00 13.9 17 Sudoeste 30 Sudoeste 0 -- -- 76
2019-11-21 15:00:00 14.2 14 Sudoeste 30 Sudoeste 0 -- -- 74
2019-11-21 14:00:00 13.8 15 Sudoeste 27 Sudoeste 0 -- -- 79
2019-11-21 13:00:00 13.7 12 Sudoeste 23 Sudoeste 0 -- -- 79
2019-11-21 12:00:00 13.1 9 Sur 16 Sur 0 -- -- 85
2019-11-21 11:00:00 11.3 6 Sudoeste 16 Sur 0 -- -- 96
2019-11-21 10:00:00 8.4 4 Este 13 Este 0 -- -- 100
2019-11-21 09:00:00 7.8 6 Sudeste 10 Este 0 -- -- 100
2019-11-21 08:00:00 7.7 6 Este 10 Sudeste 0.4 -- -- 100
2019-11-21 07:00:00 7.7 4 Este 6 Sur 0.2 -- -- 100
2019-11-21 06:00:00 7.7 6 Este 8 Este 0.2 -- -- 100
2019-11-21 05:00:00 7.2 5 Este 6 Este 0 -- -- 100
2019-11-21 04:00:00 7.8 3 Este 8 Este 0 -- -- 99
2019-11-21 03:00:00 8.9 4 Este 11 Sudoeste 0 -- -- 98
2019-11-21 02:00:00 10 6 Sudoeste 23 Sudoeste 0 -- -- 97
2019-11-21 01:00:00 9.7 9 Sur 27 Sudoeste 1.4 -- -- 97
2019-11-21 00:00:00 10 16 Sudoeste 33 Sur 5.6 -- -- 94
2019-11-20 23:00:00 10.1 17 Sur 33 Sur 2 -- -- 95
2019-11-20 22:00:00 10.2 14 Sur 35 Sur 0.4 -- -- 96
2019-11-20 21:00:00 9.4 6 Sur 14 Sur 0 -- -- 96
2019-11-20 20:00:00 10.1 8 Sur 31 Sudoeste 2.4 -- -- 95
2019-11-20 19:00:00 10.5 10 Sur 21 Sur 0.4 -- -- 96
2019-11-20 18:00:00 10.6 9 Sur 20 Sur 0 -- -- 91
2019-11-20 17:00:00 10.8 10 Sur 21 Sudeste 0 -- -- 92
2019-11-20 16:00:00 10.8 9 Sudeste 20 Sudeste 0 -- -- 94
2019-11-20 15:00:00 10.1 8 Sudeste 21 Sudoeste 3 -- -- 97
2019-11-20 14:00:00 9.9 7 Norte 13 Noroeste 1 -- -- 99
2019-11-20 13:00:00 9.1 0 Calma 26 Sudeste 5.6 -- -- 99
2019-11-20 12:00:00 9.2 5 Sudeste 13 Sudeste 3.8 -- -- 98
2019-11-20 11:00:00 9.2 2 Este 8 Sudeste 1.6 -- -- 100
2019-11-20 10:00:00 8.6 4 Este 10 Sudeste 0 -- -- 100
2019-11-20 09:00:00 8.1 5 Este 9 Sudeste 0 -- -- 100
2019-11-20 08:00:00 8 5 Este 11 Este 0 -- -- 100
2019-11-20 07:00:00 7.8 7 Sudeste 9 Este 0 -- -- 100
2019-11-20 06:00:00 7.2 5 Sudeste 11 Sudeste 0 -- -- 100
2019-11-20 05:00:00 7.6 7 Sudeste 10 Sudeste 0.2 -- -- 100
2019-11-20 04:00:00 7.5 5 Este 8 Este 0 -- -- 100
2019-11-20 03:00:00 8.1 4 Este 14 Sur 0 -- -- 100
2019-11-20 02:00:00 8.9 10 Sur 13 Sur 0 -- -- 100
2019-11-20 01:00:00 9 4 Sudeste 13 Sudoeste 0 -- -- 100
2019-11-20 00:00:00 9.3 3 Sudeste 6 Sur 0 -- -- 100
2019-11-19 23:00:00 9.9 5 Sur 8 Sur 0 -- -- 100
2019-11-19 22:00:00 9.9 4 Este 10 Sudeste 0 -- -- 100
2019-11-19 21:00:00 10.4 8 Sudeste 14 Sudeste 0.6 -- -- 100
2019-11-19 20:00:00 10.7 4 Sudeste 16 Sur 0 -- -- 100
2019-11-19 19:00:00 10.6 8 Sur 18 Sudoeste 0.6 -- -- 100
2019-11-19 18:00:00 10 4 Sudeste 10 Este 0.2 -- -- 100
2019-11-19 17:00:00 10 3 Este 6 Este 0.2 -- -- 100
2019-11-19 16:00:00 10 0 Calma 5 Nordeste 0.4 -- -- 100
2019-11-19 15:00:00 10 3 Norte 9 Nordeste 2.8 -- -- 100
2019-11-19 14:00:00 10.1 0 Calma 12 Este 2.4 -- -- 100
2019-11-19 13:00:00 9.4 5 Este 12 Sudeste 0.4 -- -- 100
2019-11-19 12:00:00 9.1 5 Este 10 Este 1.4 -- -- 100
2019-11-19 11:00:00 9.2 2 Este 6 Sudeste 1 -- -- 98
2019-11-19 10:00:00 8.7 5 Sudeste 11 Este 0 -- -- 97
2019-11-19 09:00:00 8.3 4 Este 9 Sudeste 0.4 -- -- 98
2019-11-19 08:00:00 8.5 3 Sudeste 12 Sudeste 0.2 -- -- 95
2019-11-19 07:00:00 8.5 5 Este 10 Sudeste 0 -- -- 95
2019-11-19 06:00:00 8.2 6 Este 10 Este 0 -- -- 98
2019-11-19 05:00:00 7.4 4 Este 7 Este 0 -- -- 100
2019-11-19 04:00:00 7.3 4 Este 9 Este 0 -- -- 100
2019-11-19 03:00:00 6.9 8 Sudeste 13 Este 0 -- -- 100
2019-11-19 02:00:00 7 0 Calma 5 Noroeste 0 -- -- 100
2019-11-19 01:00:00 7.6 3 Sudeste 6 Sudeste 0 -- -- 99
2019-11-19 00:00:00 7.7 4 Sudeste 12 Este 0 -- -- 100
2019-11-18 23:00:00 7 6 Este 10 Sudeste 0 -- -- 100
2019-11-18 22:00:00 7.6 5 Sudeste 8 Sudeste 0 -- -- 99
2019-11-18 21:00:00 8.1 4 Sudeste 6 Sur 0 -- -- 99
2019-11-18 20:00:00 8.3 4 Sudeste 8 Sur 0 -- -- 95
2019-11-18 19:00:00 9.8 4 Sudeste 9 Sur 0 -- -- 91
2019-11-18 18:00:00 11.9 2 Sudoeste 13 Oeste 0 -- -- 84
2019-11-18 17:00:00 13.6 7 Oeste 13 Oeste 0 -- -- 76
2019-11-18 16:00:00 13.4 2 Este 18 Noroeste 0 -- -- 76
2019-11-18 15:00:00 13.5 6 Norte 17 Norte 0 -- -- 77
2019-11-18 14:00:00 12.3 4 Nordeste 12 Noroeste 0 -- -- 82
2019-11-18 13:00:00 12 8 Noroeste 11 Oeste 0 -- -- 86
2019-11-18 12:00:00 10.8 0 Calma 6 Norte 0 -- -- 92
2019-11-18 11:00:00 9.6 2 Oeste 6 Norte 0.2 -- -- 96
2019-11-18 10:00:00 8.5 3 Norte 6 Norte 0 -- -- 100
2019-11-18 09:00:00 6.8 3 Sudeste 7 Este 0 -- -- 100
2019-11-18 08:00:00 7.1 4 Sudeste 8 Este 0 -- -- 98
2019-11-18 07:00:00 7.8 4 Sur 6 Sur 0 -- -- 97
2019-11-18 06:00:00 7.8 2 Sur 11 Sudeste 0 -- -- 97
2019-11-18 05:00:00 8 3 Noroeste 7 Norte 0 -- -- 97
2019-11-18 04:00:00 8 3 Sudoeste 6 Sudoeste 0 -- -- 96
2019-11-18 03:00:00 8.1 5 Sur 8 Sudoeste 0 -- -- 97
2019-11-18 02:00:00 8.8 0 Calma 7 Norte 0 -- -- 96
2019-11-18 01:00:00 8.6 0 Calma 11 Nordeste 0 -- -- 96
2019-11-18 00:00:00 9.4 5 Nordeste 10 Nordeste 0.2 -- -- 96
2019-11-17 23:00:00 9.2 3 Sudeste 13 Noroeste 0 -- -- 93
2019-11-17 22:00:00 10.4 4 Norte 9 Oeste 0 -- -- 90
2019-11-17 21:00:00 10.9 6 Oeste 18 Oeste 0 -- -- 89
2019-11-17 20:00:00 11.2 8 Noroeste 18 Noroeste 0 -- -- 85
2019-11-17 19:00:00 11 5 Oeste 15 Noroeste 0 -- -- 82
2019-11-17 18:00:00 11.5 12 Noroeste 23 Norte 0 -- -- 77
2019-11-17 17:00:00 13 14 Noroeste 24 Noroeste 0 -- -- 72
2019-11-17 16:00:00 13.8 10 Noroeste 21 Norte 0 -- -- 68
2019-11-17 15:00:00 13.5 13 Norte 23 Noroeste 0 -- -- 72
2019-11-17 14:00:00 13.8 9 Norte 19 Noroeste 0 -- -- 77
2019-11-17 13:00:00 13 6 Norte 17 Noroeste 0 -- -- 86
2019-11-17 12:00:00 12 3 Sudeste 10 Noroeste 0 -- -- 93
2019-11-17 11:00:00 11.7 3 Norte 8 Nordeste 0 -- -- 95
2019-11-17 10:00:00 11.4 2 Noroeste 6 Nordeste 0 -- -- 99
2019-11-17 09:00:00 11.2 5 Norte 12 Noroeste 0 -- -- 100
2019-11-17 08:00:00 11.1 5 Sudoeste 8 Oeste 0.4 -- -- 100
2019-11-17 07:00:00 11.2 3 Sur 27 Sudoeste 1.8 -- -- 100
2019-11-17 06:00:00 10.5 8 Sudoeste 18 Sudoeste 1.6 -- -- 100
2019-11-17 05:00:00 9.5 3 Este 9 Sudeste 0.4 -- -- 100
2019-11-17 04:00:00 9.5 0 Calma 8 Sur 0.2 -- -- 100
2019-11-17 03:00:00 9.5 4 Este 8 Sudeste 0.2 -- -- 99
2019-11-17 02:00:00 9.5 3 Este 8 Este 0 -- -- 98
2019-11-17 01:00:00 9.5 7 Este 13 Este 0 -- -- 98
2019-11-17 00:00:00 9.4 5 Este 9 Este 0 -- -- 98
2019-11-16 23:00:00 9.7 4 Sudeste 14 Sur 0 -- -- 98
2019-11-16 22:00:00 9.7 7 Sur 17 Sur 0.2 -- -- 98
2019-11-16 21:00:00 9.8 9 Sur 20 Sur 0.2 -- -- 97
2019-11-16 20:00:00 10.3 9 Sur 19 Sur 0 -- -- 93
2019-11-16 19:00:00 10.9 5 Sudoeste 12 Sur 0 -- -- 87
2019-11-16 18:00:00 10.6 4 Sudeste 16 Sudoeste 0 -- -- 86
2019-11-16 17:00:00 11.2 6 Sudoeste 20 Sudoeste 0 -- -- 79
2019-11-16 16:00:00 11.7 11 Sudoeste 24 Sudoeste 0 -- -- 82
2019-11-16 15:00:00 11.1 7 Sur 15 Sur 0 -- -- 84
2019-11-16 14:00:00 10.9 6 Sudoeste 12 Sudoeste 0 -- -- 85
2019-11-16 13:00:00 10.6 4 Sudoeste 10 Sudoeste 0 -- -- 87
2019-11-16 12:00:00 8.5 3 Sudeste 7 Este 0 -- -- 95
2019-11-16 11:00:00 7.3 2 Nordeste 4 Nordeste 0 -- -- 100
2019-11-16 10:00:00 5.8 2 Sudeste 4 Sur 0 -- -- 100
2019-11-16 09:00:00 5.1 2 Este 7 Este 0.2 -- -- 100
2019-11-16 08:00:00 4.8 4 Sudeste 6 Este 0 -- -- 100
2019-11-16 07:00:00 5 3 Sudeste 6 Este 0 -- -- 100
2019-11-16 06:00:00 5.2 6 Este 12 Este 0 -- -- 100
2019-11-16 05:00:00 5.2 2 Sudeste 8 Este 0 -- -- 100
2019-11-16 04:00:00 4.8 5 Sudeste 10 Sur 0 -- -- 100
2019-11-16 03:00:00 4.3 4 Sudeste 7 Sudeste 0 -- -- 98
2019-11-16 02:00:00 5.2 2 Sur 5 Sur 0 -- -- 97
2019-11-16 01:00:00 6.1 0 Calma 9 Este 0 -- -- 97
2019-11-16 00:00:00 6.5 3 Oeste 9 Sur 0.6 -- -- 96
2019-11-15 23:00:00 6.8 2 Norte 13 Nordeste 0.4 -- -- 92
2019-11-15 22:00:00 6.7 2 Este 12 Sudeste 0 -- -- 90
2019-11-15 21:00:00 7.6 5 Nordeste 26 Este 0 -- -- 82
2019-11-15 20:00:00 7.7 7 Este 37 Noroeste 0 -- -- 81
2019-11-15 19:00:00 7.4 0 Calma 15 Noroeste 0 -- -- 86
2019-11-15 18:00:00 7.9 5 Nordeste 13 Norte 0 -- -- 84
2019-11-15 17:00:00 7.8 3 Sur 26 Este 0 -- -- 86
2019-11-15 16:00:00 7.5 19 Nordeste 43 Nordeste 1.4 -- -- 87
2019-11-15 15:00:00 9.8 9 Nordeste 31 Noroeste 0 -- -- 75
2019-11-15 14:00:00 9.5 9 Norte 46 Noroeste 0 -- -- 75
2019-11-15 13:00:00 10.8 14 Noroeste 27 Noroeste 0 -- -- 70
2019-11-15 12:00:00 9.1 5 Norte 30 Norte 0 -- -- 78
2019-11-15 11:00:00 8.6 10 Noroeste 27 Norte 0 -- -- 79
2019-11-15 10:00:00 7.8 15 Noroeste 30 Norte 0.6 -- -- 81
2019-11-15 09:00:00 7.1 10 Noroeste 26 Norte 0 -- -- 82
2019-11-15 08:00:00 7.1 17 Noroeste 33 Norte 0 -- -- 82
2019-11-15 07:00:00 7.7 13 Norte 33 Norte 0.4 -- -- 81
2019-11-15 06:00:00 8.1 19 Noroeste 33 Noroeste 0 -- -- 76
2019-11-15 05:00:00 8 7 Norte 25 Nordeste 0 -- -- 74
2019-11-15 04:00:00 8.1 9 Nordeste 23 Noroeste 0 -- -- 75
2019-11-15 03:00:00 8.2 8 Norte 23 Norte 0 -- -- 71
2019-11-15 02:00:00 8.2 13 Noroeste 29 Noroeste 0 -- -- 76
2019-11-15 01:00:00 8.4 11 Norte 21 Norte 0 -- -- 74
2019-11-15 00:00:00 8.7 9 Norte 37 Noroeste 0 -- -- 75